This demonstration page uses our WeatherBlox Daily Observations layout. Learn more.

Left ArrowRight Arrow

41.12389, -100.76542

Hourly Observations for March 8, 2015

Temp ( °F °C ) Dew Point ( °F °C ) Humidity (%) Winds ( mph kmh ) Pressure ( in mb ) Visibility ( mi km ) Precip ( " mm )
12:53 am 00:53 Clear 36 2.2 21 -6.1 55 55 NW 3 6 30.06 1018 10 16 0.00 0.00
1:53 am 01:53 Cloudy 33 0.6 21 -6.1 61 61 NW 7 11 30.06 1018 10 16 0.00 0.00
3:53 am 03:53 Clear 29 -1.7 20 -6.7 69 69 NW 6 9 30.04 1017 10 16 0.00 0.00
4:53 am 04:53 Clear 28 -2.2 20 -6.7 72 72 NW 9 15 30.05 1018 10 16 0.00 0.00
5:53 am 05:53 Clear 27 -2.8 20 -6.7 75 75 NNW 5 7 30.08 1019 10 16 0.00 0.00
6:53 am 06:53 Clear 33 0.6 23 -5 66 66 NNW 8 13 30.11 1020 10 16 0.00 0.00
7:53 am 07:53 Clear 31 -0.6 23 -5 72 72 NW 7 11 30.14 1021 10 16 0.00 0.00
8:53 am 08:53 Sunny 31 -0.6 24 -4.4 76 76 N 8 13 30.19 1022 10 16 0.00 0.00
9:53 am 09:53 Sunny 35 1.7 26 -3.3 70 70 N 13 20 30.21 1023 10 16 0.00 0.00
10:53 am 10:53 Sunny 41 5 27 -2.8 57 57 N 10 17 30.21 1023 10 16 0.00 0.00
11:53 am 11:53 Sunny 46 7.8 27 -2.8 47 47 NNE 9 15 30.20 1023 10 16 0.00 0.00
12:53 pm 12:53 Sunny 50 10 27 -2.8 41 41 N 13 20 30.19 1022 10 16 0.00 0.00
1:53 pm 13:53 Sunny 54 12 25 -4 33 33 N 12 19 30.15 1021 10 16 0.00 0.00
2:53 pm 14:53 Sunny 55 12.8 22 -5.6 28 28 N 10 17 30.14 1021 10 16 0.00 0.00
3:53 pm 15:53 Sunny 56 13.3 18 -7.8 22 22 N 13 20 30.12 1020 10 16 0.00 0.00
4:53 pm 16:53 Sunny 57 13.9 18 -7.8 22 22 NNE 8 13 30.12 1020 10 16 0.00 0.00
5:53 pm 17:53 Sunny 56 13.3 18 -7.8 22 22 ENE 9 15 30.11 1020 10 16 0.00 0.00
6:53 pm 18:53 Sunny 54 12.2 18 -7.8 24 24 ENE 8 13 30.11 1020 10 16 0.00 0.00
7:53 pm 19:53 Clear 40 4.4 17 -8.3 40 40 E 3 6 30.14 1021 10 16 0.00 0.00
8:53 pm 20:53 Clear 34 1.1 16 -8.9 48 48 E 6 9 30.16 1022 10 16 0.00 0.00
9:53 pm 21:53 Clear 29 -1.7 16 -8.9 58 58 ESE 5 7 30.17 1022 10 16 0.00 0.00
10:53 pm 22:53 Clear 29 -1.7 17 -8.3 61 61 SE 5 7 30.17 1022 10 16 0.00 0.00
11:53 pm 23:53 Clear 27 -2.8 20 -6.7 75 75 Calm 30.17 1022 10 16 0.00 0.00

Powered by AerisWeather